Regional Weather Roundup
Issued by NWS

Home | Current Version | Previous Version | Graphics & Text | Print | Product List | Glossary On
Versions: 1 2 3 4 5 6 7 8 9 10 11 12 13 14 15 16 17 18 19 20 21 22 23 24 25 26 27 28 29 30 31 32 33 34 35 36 37 38 39 40 41 42 43 44 45 46 47 48 49 50
000
ASUS43 KLSX 212107
RWRMO

WEATHER SUMMARY FOR MISSOURI
NATIONAL WEATHER SERVICE SPRINGFIELD MO
400 PM CDT SUN SEP 21 2014

NOTE: "FAIR" INDICATES FEW OR NO CLOUDS BELOW 12,000 FEET WITH NO
       SIGNIFICANT WEATHER AND/OR OBSTRUCTIONS TO VISIBILITY.
       CURRENT SKY AND/OR WEATHER CONDITIONS ARE NOT AVAILABLE FOR
       CHILLICOTHE AND FARMINGTON.

MOZ001>031-035>038-043-044-053-054-212200-
...NORTHERN AND WESTERN MISSOURI...

CITY           SKY/WX    TMP DP  RH WIND       PRES   REMARKS
KANSAS CTY INT SUNNY     75  48  38 N14G22    30.16R
KANSAS C DTWN  SUNNY     77  46  33 N10G22    30.14S
LEE`S SUMMIT   LGT RAIN  75  46  35 NW10      30.15S
ST JOSEPH      SUNNY     75  48  38 NW16G24   30.16S
CHILLICOTHE      N/A     73  48  41 N8G17     30.14S
KIRKSVILLE     MOSUNNY   71  49  45 NW13      30.13R

$$
MOZ066>068-077>081-088>096-101>105-212200-
...SOUTHWEST MISSOURI...

CITY           SKY/WX    TMP DP  RH WIND       PRES   REMARKS
SPRINGFIELD    SUNNY     77  47  34 NW14      30.11S
JOPLIN         SUNNY     78  49  35 N12       30.13F

$$
MOZ032>034-039>042-045>050-055>058-069>072-212200-
...CENTRAL MISSOURI...

CITY           SKY/WX    TMP DP  RH WIND       PRES   REMARKS
COLUMBIA       SUNNY     75  49  39 NW16      30.09S
JEFFERSON CITY SUNNY     76  44  32 NW14G21   30.08S
ROLLA          SUNNY     75  47  36 NW14G22   30.07S
SEDALIA        SUNNY     77  46  33 NW15G25   30.12S
WHITEMAN AFB   SUNNY     75  49  39 N10       30.12S
OSAGE BEACH    SUNNY     77  46  33 NW8       30.09S

$$
MOZ051-052-059>065-212200-
...EAST CENTRAL MISSOURI...

CITY           SKY/WX    TMP DP  RH WIND       PRES   REMARKS
ST LOUIS INTL  MOSUNNY   76  47  35 NW17G26   30.03S
SPIRIT OF STL  MOSUNNY   75  48  38 NW22      30.03R
ST CHARLES     SUNNY     75  49  39 NW15G24   30.03S

$$
MOZ072>076-082>087-097>100-106>115-212200-
...SOUTH CENTRAL AND SOUTHEAST MISSOURI...

CITY           SKY/WX    TMP DP  RH WIND       PRES   REMARKS
CAPE GIRARDEAU SUNNY     81  48  31 N9        29.99S
FARMINGTON     SUNNY     77  45  31 NW9G18    30.05F
POPLAR BLUFF   SUNNY     83  45  26 NW14G21   29.99F
WEST PLAINS    SUNNY     80  44  27 N9G18     30.08S

$$


USA.gov is the U.S. government's official web portal to all federal, state and local government web resources and services.